| time (UTC) | temp C | wind direction | speed KPH | gust KPH | rain 1hr cm | rain 24hr cm | rain mn cm | humidity % | barometer mb |
| 20260505190317 | 8 | 109 | 1.6 | 6.4 | 0.00 | 0.00 | 0.00 | 88 | 1032.2 |
| 20260505183317 | 8 | 124 | 3.2 | 6.4 | 0.00 | 0.00 | 0.00 | 87 | 1032.1 |
| 20260505180355 | 9 | 120 | 3.2 | 9.7 | 0.00 | 0.00 | 0.00 | 85 | 1032.2 |
| 20260505173332 | 8 | 117 | 3.2 | 6.4 | 0.00 | 0.00 | 0.00 | 84 | 1032.3 |
| 20260505163337 | 9 | 122 | 1.6 | 6.4 | 0.00 | 0.00 | 0.00 | 79 | 1032.2 |
| 20260505160330 | 8 | 94 | 3.2 | 8.0 | 0.00 | 0.00 | 0.00 | 76 | 1032.5 |
| 20260505153330 | 8 | 101 | 1.6 | 8.0 | 0.00 | 0.00 | 0.00 | 76 | 1032.6 |
| 20260505150327 | 9 | 101 | 1.6 | 11.3 | 0.00 | 0.00 | 0.00 | 75 | 1032.6 |
| 20260505140326 | 10 | 118 | 1.6 | 6.4 | 0.00 | 0.00 | 0.00 | 72 | 1032.6 |
| 20260505123324 | 10 | 234 | 3.2 | 9.7 | 0.00 | 0.00 | 0.00 | 72 | 1032.5 |
| 20260505120321 | 8 | 84 | 0.0 | 4.8 | 0.00 | 0.00 | 0.00 | 86 | 1032.1 |
| 20260505113320 | 8 | 85 | 0.0 | 0.0 | 0.00 | 0.00 | 0.00 | 90 | 1031.8 |
| 20260505110318 | 8 | 85 | 0.0 | 0.0 | 0.00 | 0.00 | 0.00 | 87 | 1031.7 |
| 20260505100316 | 11 | 89 | 0.0 | 1.6 | 0.00 | 0.00 | 0.00 | 77 | 1030.7 |
| 20260505093316 | 13 | 70 | 1.6 | 6.4 | 0.00 | 0.00 | 0.00 | 69 | 1030.7 |
| 20260505090333 | 16 | 283 | 0.0 | 4.8 | 0.00 | 0.00 | 0.00 | 62 | 1030.1 |
| 20260505083333 | 17 | 235 | 3.2 | 9.7 | 0.00 | 0.00 | 0.00 | 54 | 1029.9 |
| 20260505080351 | 18 | 195 | 4.8 | 9.7 | 0.00 | 0.10 | 0.00 | 45 | 1029.6 |
| 20260505073350 | 19 | 133 | 1.6 | 6.4 | 0.00 | 0.10 | 0.00 | 39 | 1029.3 |
| 20260505070327 | 18 | 138 | 1.6 | 12.9 | 0.00 | 0.10 | 0.00 | 41 | 1029.3 |
| 20260505063347 | 18 | 355 | 1.6 | 11.3 | 0.00 | 0.10 | 0.00 | 41 | 1029.2 |
| 20260505060344 | 18 | 131 | 4.8 | 14.5 | 0.00 | 0.10 | 0.00 | 40 | 1029.1 |
| 20260505053323 | 17 | 287 | 1.6 | 17.7 | 0.00 | 0.10 | 0.00 | 41 | 1029.4 |
| 20260505050321 | 17 | 224 | 3.2 | 14.5 | 0.00 | 0.10 | 0.00 | 43 | 1029.6 |
| 20260505040339 | 17 | 254 | 8.0 | 22.5 | 0.00 | 0.10 | 0.00 | 39 | 1029.6 |
| 20260505033317 | 16 | 296 | 6.4 | 20.9 | 0.00 | 0.10 | 0.00 | 43 | 1029.9 |
| 20260505030315 | 15 | 329 | 8.0 | 24.1 | 0.00 | 0.10 | 0.00 | 46 | 1030.2 |
| 20260505023315 | 15 | 122 | 16.1 | 33.8 | 0.00 | 0.10 | 0.00 | 42 | 1030.1 |
| 20260505020333 | 14 | 238 | 9.7 | 25.7 | 0.00 | 0.10 | 0.00 | 48 | 1030.1 |
| 20260505013333 | 14 | 172 | 6.4 | 20.9 | 0.00 | 0.10 | 0.00 | 53 | 1030.0 |
| 20260505010331 | 13 | 252 | 11.3 | 25.7 | 0.00 | 0.10 | 0.00 | 57 | 1029.8 |
| 20260505003331 | 12 | 248 | 9.7 | 17.7 | 0.00 | 0.10 | 0.00 | 63 | 1029.5 |
| 20260505000328 | 11 | 271 | 8.0 | 20.9 | 0.00 | 0.20 | 0.00 | 66 | 1029.2 |
| 20260504233326 | 11 | 299 | 3.2 | 19.3 | 0.00 | 0.20 | 0.00 | 68 | 1028.8 |
| 20260504230324 | 10 | 307 | 6.4 | 19.3 | 0.00 | 0.20 | 0.00 | 70 | 1028.4 |
| 20260504223345 | 10 | 310 | 11.3 | 27.4 | 0.00 | 0.20 | 0.00 | 71 | 1027.9 |
| 20260504220322 | 8 | 210 | 8.0 | 20.9 | 0.00 | 2.79 | 0.00 | 74 | 1027.6 |
| 20260504213322 | 8 | 325 | 14.5 | 24.1 | 0.00 | 2.79 | 0.00 | 76 | 1026.9 |
| 20260504210319 | 7 | 306 | 6.4 | 11.3 | 0.00 | 3.10 | 0.00 | 80 | 1026.8 |
| 20260504203320 | 7 | 283 | 4.8 | 8.0 | 0.00 | 3.10 | 0.00 | 81 | 1026.4 |
| 20260504200318 | 6 | 86 | 3.2 | 22.5 | 0.00 | 3.20 | 0.00 | 82 | 1025.6 |
| 20260504193317 | 6 | 1 | 8.0 | 22.5 | 0.00 | 3.20 | 0.00 | 83 | 1024.9 |